Weather History for Sioux Falls, SD

Change the Weather History Date:

Saturday, February 23, 2013

  Actual Average Record
Temperature  
Mean Temperature 10 °F 24 °F  
Max Temperature 23 °F 34 °F 70 °F (1958)
Min Temperature -3 °F 15 °F -19 °F (1965)
Degree Days  
Heating Degree Days 55 41  
Month to date heating degree days 999 1021  
Since 1 July heating degree days 5405 5653  
Cooling Degree Days 0 0  
Month to date cooling degree days 0 0  
Year to date cooling degree days 0 0  
Moisture  
Dew Point 3 °F    
Average Humidity 86    
Maximum Humidity 100    
Minimum Humidity 71    
Precipitation  
Precipitation 0.00 in 0.03 in 0.82 in (2000)
Month to date precipitation 0.94 0.46  
Year to date precipitation 1.35 1.02  
Snow  
Snow 0.00 in 0.30 in 5.60 in (2012)
Month to date snowfall 9.6 5.6  
Since 1 July snowfall 25.5 30.2  
Snow Depth 5.00 in    
Sea Level Pressure  
Sea Level Pressure 29.91 in    
Wind  
Wind Speed 5 mph (ENE)    
Max Wind Speed 13 mph    
Max Gust Speed 18 mph    
Visibility 5 miles    
Events Fog    
T = Trace of Precipitation, MM = Missing Value Source: NWS Daily Summary

Daily Weather History Graph

Daily Weather History Graph

Search for Another Location

Airport:

Trip Planner

Search our weather history database for the weather conditions in past years. The results will help you decide how hot, cold, wet, or windy it might be!

Date:

Astronomy

Feb. 23, 2013 Rise Set
Actual Time 7:12 AM CST 6:08 PM CST
Civil Twilight 6:43 AM CST 6:37 PM CST
Nautical Twilight 6:10 AM CST 7:10 PM CST
Astronomical Twilight 5:37 AM CST 7:43 PM CST
Moon 4:18 PM CST (2/23) 5:38 AM CST (2/23)
Length of Visible Light 11h 53m
Length of Day
10h 55m
Waxing Gibbous, 95% of the Moon is Illuminated
Feb 23
Waxing Gibbous
Feb 25
Full
Mar 4
Last Quarter
Mar 11
New
Mar 19
First Quarter

Hourly Weather History & Observations

Time (CST) Temp. Windchill Dew Point Humidity Pressure Visibility Wind Dir Wind Speed Gust Speed Precip Events Conditions
12:56 AM 8.1 °F - 5.0 °F 87% 30.00 in 10.0 mi Calm Calm - N/A   Clear
1:56 AM 3.9 °F - 1.9 °F 91% 29.99 in 7.0 mi Calm Calm - N/A   Clear
2:56 AM -0.0 °F - -2.9 °F 88% 29.98 in 10.0 mi Calm Calm - N/A   Clear
3:45 AM -0.4 °F - -2.2 °F 92% 29.88 in 8.0 mi Calm Calm - N/A   Scattered Clouds
3:56 AM -0.0 °F - -2.0 °F 91% 29.96 in 7.0 mi Calm Calm - N/A   Mostly Cloudy
4:42 AM -0.4 °F - -2.2 °F 92% 29.86 in 1.5 mi Calm Calm - N/A   Mostly Cloudy
4:45 AM -0.4 °F - -2.2 °F 92% 29.86 in 0.8 mi Calm Calm - N/A   Mostly Cloudy
4:56 AM -0.9 °F - -2.0 °F 95% 29.96 in 0.5 mi Calm Calm - N/A Fog Light Freezing Fog
5:02 AM -0.4 °F - -2.2 °F 92% 29.87 in 0.2 mi Calm Calm - N/A Fog Light Freezing Fog
5:16 AM -0.4 °F - -2.2 °F 92% 29.87 in 0.5 mi Calm Calm - N/A Fog Light Freezing Fog
5:34 AM -0.4 °F - -2.2 °F 92% 29.87 in 0.5 mi Calm Calm - N/A Fog Light Freezing Fog
5:45 AM -2.2 °F -10.4 °F -2.2 °F 100% 29.87 in 0.5 mi North 3.5 mph - N/A Fog Light Freezing Fog
5:56 AM -2.0 °F - -2.9 °F 96% 29.96 in 0.5 mi Calm Calm - N/A Fog Light Freezing Fog
6:29 AM -2.2 °F -12.5 °F -4.0 °F 92% 29.86 in 1.0 mi NNE 4.6 mph - N/A   Mist
6:39 AM -0.4 °F -10.4 °F -2.2 °F 92% 29.86 in 1.5 mi NNE 4.6 mph - N/A   Overcast
6:45 AM -0.4 °F -10.4 °F -2.2 °F 92% 29.86 in 2.0 mi NE 4.6 mph - N/A   Mostly Cloudy
6:56 AM -0.9 °F -11.0 °F -4.0 °F 87% 29.96 in 2.0 mi NNE 4.6 mph - N/A   Mostly Cloudy
7:23 AM -2.2 °F - -5.8 °F 85% 29.86 in 1.0 mi Calm Calm - N/A   Overcast
7:31 AM -2.2 °F - -5.8 °F 85% 29.86 in 0.5 mi Calm Calm - N/A Fog Light Freezing Fog
7:34 AM -2.2 °F - -5.8 °F 85% 29.86 in 0.2 mi Calm Calm - N/A Fog Light Freezing Fog
7:44 AM -2.2 °F -10.4 °F -5.8 °F 85% 29.85 in 0.2 mi NE 3.5 mph - N/A Fog Light Freezing Fog
7:56 AM -0.9 °F - -2.9 °F 91% 29.96 in 0.5 mi Calm Calm - N/A Fog Light Freezing Fog
8:56 AM 1.9 °F - -0.9 °F 88% 29.96 in 1.0 mi Calm Calm - N/A   Overcast
9:07 AM 1.4 °F - -0.4 °F 92% 29.86 in 2.0 mi Calm Calm - N/A   Mostly Cloudy
9:12 AM 3.2 °F -4.2 °F -0.4 °F 85% 29.86 in 2.0 mi NNE 3.5 mph - N/A   Scattered Clouds
9:36 AM 6.8 °F -3.5 °F 1.4 °F 79% 29.86 in 4.0 mi NNE 5.8 mph - N/A   Haze
9:56 AM 6.1 °F -5.6 °F 1.9 °F 83% 29.95 in 4.0 mi NNE 6.9 mph - N/A   Scattered Clouds
10:56 AM 10.9 °F 1.4 °F 6.1 °F 81% 29.95 in 6.0 mi NE 5.8 mph - N/A   Clear
11:56 AM 17.1 °F 6.6 °F 12.0 °F 81% 29.93 in 10.0 mi East 8.1 mph - N/A   Clear
12:56 PM 21.0 °F 10.6 °F 14.0 °F 74% 29.91 in 10.0 mi East 9.2 mph - N/A   Clear
1:56 PM 21.9 °F 11.7 °F 16.0 °F 78% 29.91 in 10.0 mi East 9.2 mph - N/A   Clear
2:56 PM 23.0 °F 13.1 °F 16.0 °F 74% 29.90 in 10.0 mi East 9.2 mph - N/A   Clear
3:56 PM 23.0 °F 12.4 °F 16.0 °F 74% 29.88 in 10.0 mi ESE 10.4 mph - N/A   Clear
4:56 PM 21.9 °F 10.4 °F 17.1 °F 82% 29.89 in 10.0 mi East 11.5 mph - N/A   Clear
5:56 PM 19.9 °F 9.3 °F 15.1 °F 81% 29.91 in 10.0 mi ESE 9.2 mph - N/A   Clear
6:56 PM 17.1 °F 8.7 °F 12.9 °F 84% 29.92 in 10.0 mi East 5.8 mph - N/A   Clear
7:56 PM 16.0 °F - 14.0 °F 92% 29.94 in 8.0 mi Calm Calm - N/A   Clear
8:56 PM 7.0 °F -3.3 °F 6.1 °F 96% 29.95 in 4.0 mi ENE 5.8 mph - N/A   Clear
9:56 PM 9.0 °F -0.9 °F 8.1 °F 96% 29.94 in 4.0 mi East 5.8 mph - N/A   Clear
10:56 PM 3.0 °F -6.4 °F 1.0 °F 91% 29.96 in 4.0 mi NE 4.6 mph - N/A   Clear
11:56 PM 5.0 °F -2.1 °F 5.0 °F 100% 29.96 in 5.0 mi NE 3.5 mph - N/A   Clear